This demonstration page uses our WeatherBlox Daily Observations layout. Learn more.

40.92945, -100.16068

Hourly Observations for December 2, 2019

Temp ( °F °C ) Dew Point ( °F °C ) Humidity (%) Winds ( mph kmh ) Pressure ( in mb ) Visibility ( mi km ) Precip ( " mm )
12:15 am 00:15 Clear 23 -4.8 21 -6.2 90 90 W 8 13 30.35 1028 10 16.0934 0 0
12:35 am 00:35 Clear 22 -5.6 20 -6.8 91 91 W 6 9 30.35 1028 10 16.0934 0 0
12:55 am 00:55 Clear 23 -5.2 20 -6.5 91 91 W 6 9 30.35 1028 10 16.0934 0 0
1:15 am 01:15 Clear 22 -5.5 20 -6.6 92 92 NW 5 7 30.35 1028 10 16.0934 0 0
1:35 am 01:35 Clear 21 -6.1 19 -7.1 93 93 Calm 30.36 1028 10 16.0934 0 0
1:55 am 01:55 Clear 21 -6.2 19 -7.3 92 92 Calm 30.35 1028 10 16.0934 0 0
2:15 am 02:15 Clear 20 -6.6 19 -7.3 95 95 Calm 30.36 1028 10 16.0934 0 0
2:35 am 02:35 Clear 20 -6.6 18 -7.7 92 92 NW 3 6 30.35 1028 10 16.0934 0 0
2:55 am 02:55 Clear 19 -7 18 -8 93 93 Calm 30.35 1028 10 16.0934 0 0
3:15 am 03:15 Clear 19 -7 18 -8 93 93 Calm 30.35 1028 10 16.0934 0 0
3:35 am 03:35 Clear 20 -6.8 18 -7.8 93 93 Calm 30.34 1027 10 16.0934 0 0
3:55 am 03:55 Clear 19 -7.2 17 -8.1 93 93 Calm 30.35 1028 10 16.0934 0 0
4:15 am 04:15 Clear 19 -7.3 18 -8 95 95 Calm 30.34 1028 10 16.0934 0 0
4:35 am 04:35 Clear 19 -7.2 18 -8 94 94 Calm 30.34 1027 10 16.0934 0 0
4:55 am 04:55 Clear 19 -7.5 17 -8.2 95 95 Calm 30.34 1028 10 16.0934 0 0
5:15 am 05:15 Clear 18 -7.7 17 -8.5 94 94 SW 5 7 30.35 1028 10 16.0934 0 0
5:35 am 05:35 Clear 18 -7.7 17 -8.6 93 93 Calm 30.34 1027 10 16.0934 0 0
5:55 am 05:55 Clear 18 -7.7 17 -8.6 93 93 Calm 30.33 1027 10 16.0934 0 0
6:15 am 06:15 Clear 18 -7.6 17 -8.5 93 93 S 3 6 30.33 1027 10 16.0934 0 0
6:35 am 06:35 Clear 18 -7.7 17 -8.5 94 94 Calm 30.33 1027 10 16.0934 0 0
6:55 am 06:55 Clear 18 -8 17 -8.5 96 96 Calm 30.32 1027 10 16.0934 0 0
7:15 am 07:15 Clear 18 -7.7 17 -8.5 94 94 Calm 30.32 1027 10 16.0934 0 0
7:35 am 07:35 Clear 18 -7.6 17 -8.5 93 93 Calm 30.32 1027 10 16.0934 0 0
7:55 am 07:55 Sunny 19 -7.5 17 -8.3 94 94 Calm 30.3 1026 10 16.0934 0 0
8:15 am 08:15 Sunny 19 -7.1 17 -8.1 93 93 Calm 30.3 1026 10 16.0934 0 0
8:35 am 08:35 Sunny 20 -6.4 19 -7.5 92 92 Calm 30.29 1026 10 16.0934 0 0
8:55 am 08:55 Sunny 22 -5.3 20 -6.8 89 89 Calm 30.28 1025 10 16.0934 0 0
9:15 am 09:15 Sunny 25 -3.9 22 -5.7 87 87 Calm 30.27 1025 10 16.0934 0 0
9:35 am 09:35 Sunny 29 -1.6 23 -5 78 78 SW 7 11 30.24 1024 10 16.0934 0 0
9:55 am 09:55 Sunny 32 -0.1 23 -5.2 69 69 SW 13 20 30.22 1023 10 16.0934 0 0
10:15 am 10:15 Sunny 32 0.2 23 -5 68 68 SW 8 13 30.21 1023 10 16.0934 0 0
10:35 am 10:35 Sunny 34 1.2 24 -4.6 66 66 SSW 7 11 30.2 1023 10 16.0934 0 0
10:55 am 10:55 Sunny 36 2.3 24 -4.6 61 61 WSW 5 7 30.18 1022 10 16.0934 0 0
11:15 am 11:15 Sunny 37 3 23 -5.2 55 55 SW 8 13 30.17 1022 10 16.0934 0 0
11:35 am 11:35 Sunny 39 3.9 24 -4.4 55 55 SSW 8 13 30.15 1021 10 16.0934 0 0
11:55 am 11:55 Sunny 38 3.6 23 -5 54 54 SSW 14 22 30.13 1020 10 16.0934 0 0
12:15 pm 12:15 Sunny 39 3.9 24 -4.6 54 54 SW 12 19 30.12 1020 10 16.0934 0 0
12:35 pm 12:35 Sunny 40 4.2 23 -4.8 52 52 SW 15 24 30.11 1020 10 16.0934 0 0
12:55 pm 12:55 Sunny 39 4.1 25 -4.1 56 56 SSW 12 19 30.1 1019 10 16.0934 0 0
1:15 pm 13:15 Sunny 40 4.5 25 -3.7 56 56 SSW 12 19 30.08 1019 10 16.0934 0 0
1:30 pm 13:30 Sunny 40 4.7 27 -2.8 59 59 SSW 9 15 30.07 1018 10 16.0934 0 0
1:55 pm 13:55 Sunny 40 4.6 28 -2.5 60 60 SW 9 15 30.05 1018 10 16.0934 0 0
2:15 pm 14:15 Sunny 41 4.9 28 -2.3 60 60 SW 7 11 30.05 1018 10 16.0934 0 0
2:35 pm 14:35 Sunny 40 4.4 28 -2.3 62 62 WSW 7 11 30.06 1018 10 16.0934 0 0
2:55 pm 14:55 Sunny 41 5.2 28 -2 60 60 WSW 9 15 30.05 1017 10 16.0934 0 0
3:15 pm 15:15 Sunny 41 5 28 -2.1 60 60 WSW 6 9 30.05 1018 10 16.0934 0 0
3:35 pm 15:35 Sunny 42 5.5 29 -1.7 60 60 WSW 7 11 30.04 1017 10 16.0934 0 0
3:55 pm 15:55 Sunny 42 5.4 30 -1.1 63 63 WSW 5 7 30.04 1017 10 16.0934 0 0
4:15 pm 16:15 Sunny 40 4.5 30 -1.1 67 67 WSW 6 9 30.05 1018 10 16.0934 0 0
4:35 pm 16:35 Sunny 39 4.1 29 -1.4 68 68 SW 3 6 30.06 1018 10 16.0934 0 0
4:55 pm 16:55 Sunny 38 3.4 29 -1.4 71 71 SSW 6 9 30.05 1018 10 16.0934 0 0
5:15 pm 17:15 Clear 36 2 29 -1.5 78 78 SW 6 9 30.07 1018 10 16.0934 0 0
5:35 pm 17:35 Clear 35 1.8 29 -1.8 77 77 SSW 6 9 30.07 1018 10 16.0934 0 0
5:55 pm 17:55 Clear 35 1.5 29 -1.9 78 78 SSW 6 9 30.06 1018 10 16.0934 0 0
6:15 pm 18:15 Clear 34 0.9 28 -2 81 81 S 5 7 30.07 1018 10 16.0934 0 0
6:35 pm 18:35 Clear 34 1 28 -2.1 80 80 SSW 5 7 30.07 1018 10 16.0934 0 0
6:55 pm 18:55 Clear 33 0.7 28 -2.2 81 81 Calm 30.07 1018 10 16.0934 0 0
7:15 pm 19:15 Clear 33 0.4 28 -2.5 81 81 Calm 30.06 1018 10 16.0934 0 0
7:35 pm 19:35 Clear 31 -0.5 29 -1.9 90 90 NNW 3 6 30.08 1019 10 16.0934 0 0
7:55 pm 19:55 Clear 32 -0.2 28 -2 88 88 WNW 3 6 30.08 1019 10 16.0934 0 0
8:15 pm 20:15 Clear 32 -0.1 28 -2.3 85 85 WNW 6 9 30.09 1019 10 16.0934 0 0
8:35 pm 20:35 Clear 31 -0.8 27 -2.6 88 88 W 6 9 30.08 1019 10 16.0934 0 0
8:55 pm 20:55 Clear 30 -1.2 27 -2.7 90 90 W 7 11 30.09 1019 10 16.0934 0 0
9:15 pm 21:15 Clear 29 -1.4 27 -2.8 90 90 W 6 9 30.08 1019 10 16.0934 0 0
9:35 pm 21:35 Clear 29 -1.7 26 -3.1 90 90 WNW 6 9 30.08 1019 10 16.0934 0 0
9:55 pm 21:55 Clear 29 -1.5 27 -2.7 92 92 WNW 6 9 30.08 1019 10 16.0934 0 0
10:15 pm 22:15 Clear 29 -1.4 27 -3 89 89 WNW 3 6 30.08 1019 10 16.0934 0 0
10:35 pm 22:35 Clear 29 -1.7 26 -3.2 90 90 NW 5 7 30.07 1018 10 16.0934 0 0
10:55 pm 22:55 Clear 29 -1.5 27 -3 90 90 NW 6 9 30.07 1018 10 16.0934 0 0
11:15 pm 23:15 Clear 28 -2.2 26 -3.6 90 90 WNW 5 7 30.08 1019 10 16.0934 0 0
11:35 pm 23:35 Clear 29 -1.8 26 -3.1 91 91 W 7 11 30.06 1018 10 16.0934 0 0
11:55 pm 23:55 Clear 29 -1.5 27 -3 90 90 WNW 8 13 30.07 1018 10 16.0934 0 0

Powered by AerisWeather